Location: Unspecified
(0.0000°N, 0.0000°E)
Time: 11:06:26
(UTC+00:00)

NOSS 2-2 (D) - Pass Details

Date: 30 January 2022
Orbit: 438 x 1764 km, 63.3° (Epoch: 15 May)

Event Time Altitude Azimuth Distance (km) Brightness Sun altitude
Rises 04:59:58 0° 8° (N) 3,959 7.6 -17.4°
Reaches altitude 10° 05:03:09 10° 22° (NNE) 3,218 7.2 -16.7°
Maximum altitude 05:09:15 23° 72° (ENE) 2,695 7.4 -15.2°
Drops below altitude 10° 05:16:26 10° 119° (ESE) 3,893 9.0 -13.5°
Sets 05:20:40 0° 131° (SE) 4,999 9.5 -12.5°
